SCP
0 0 0 0 0 0 0 0 0 0 0 0 0 0 0 0 0 0 0 0 0 -0
0 0 0 0 0 0 0 0 0 0 0 0 0 0 0 0 0 0 0 0 0 -0
0 0 0 0 0 0 0 0 0 0 0 0 0 0 0 0 0 0 0 0 0 0
0 0 0 0 0 0 0 0 0 0 0 0 0 0 0 0 0 0 0 0 0 0
0 0 0 0 0 0 0 0 0 0 0 0 0 0 0 0 0 0 0 0 0 -0
0 0 0 0 0 0 0 0 0 0 -0 -0 0 0 0 0 0 0 0 0 0 0
0 0 0 0 0 0 0 0 0 0 0 0 0 0 0 0 0 0 0 0 0 0
0 0 0 0 0 0 0 0 0 0 0 0 0 0 0 0 0 0 0 0 0 0
0 0 0 0 0 0 0 0 0 0 0 0 0 0 0 0 0 0 0 0 0 0
1 1 1 1 0 0 0 1 0 0 0 0 0 0 0 0 0 0 0 0 0 0
0 1 1 1 1 1 1 1 1 1 1 0 1 0 0 0 0 1 0 0 0 0
0 1 2 2 1 2 1 1 1 1 1 1 1 0 0 0 0 0 1 1 1 1
0 1 1 2 2 1 1 1 1 1 1 1 1 0 0 0 1 1 1 0 0 0
1 1 1 1 2 2 2 2 2 2 2 2 1 0 0 0 1 1 0 0 0 0
Wind_Speed_500mb
33 24 20 20 20 17 18 18 23 23 17 18 19 19 20 15 10 12 8 9 10 8
32 31 26 26 24 19 23 21 19 22 21 18 24 23 19 14 14 15 10 12 9 8
33 30 30 27 30 25 22 24 24 22 22 23 23 22 24 18 18 17 14 11 15 12
32 32 31 31 31 32 32 29 29 30 28 24 25 27 22 20 20 19 18 16 17 16
39 36 35 35 36 34 34 38 36 31 29 28 26 29 30 25 19 21 20 18 19 16
40 41 43 42 39 36 37 37 36 37 37 31 30 26 29 33 28 22 21 21 19 20
44 45 44 43 45 41 41 45 44 40 41 36 36 31 29 29 29 23 23 24 23 25
45 46 43 45 48 45 44 45 49 47 39 37 36 34 29 26 26 26 25 25 27 28
44 43 50 46 46 50 48 48 46 52 46 41 40 39 41 33 29 28 28 30 30 30
49 56 61 53 47 49 50 50 49 46 48 48 45 47 48 40 39 38 32 36 30 29
46 53 57 59 55 47 46 50 55 51 47 44 45 53 54 51 48 48 42 36 34 34
40 51 57 62 57 54 49 50 51 54 56 52 46 53 52 47 44 38 37 38 41 38
36 43 54 59 61 52 46 48 45 47 53 53 45 53 47 43 43 41 46 47 43 40
33 41 50 50 50 56 52 48 53 48 51 50 51 45 44 44 44 45 44 41 40 40
Wind_Direction_500mb
212 213 206 211 207 203 209 219 218 225 235 217 209 215 225 232 229 255 271 263 260 278
222 214 215 212 217 222 215 215 220 218 221 220 227 233 238 228 243 239 268 267 273 280
222 229 225 221 220 220 218 220 217 221 228 228 232 236 240 235 252 248 255 273 271 279
217 221 227 226 230 234 240 234 232 239 231 233 232 232 237 229 227 251 256 263 277 280
228 219 222 228 231 235 234 242 240 238 236 240 230 237 237 240 240 251 250 253 265 280
226 226 226 226 229 230 234 235 239 239 243 240 233 242 245 245 240 239 247 258 267 277
229 231 232 231 231 233 234 239 237 241 243 241 233 243 251 246 232 241 256 263 271 276
237 234 233 233 235 238 236 240 237 239 241 240 237 242 249 236 234 249 257 259 267 280
236 234 235 240 235 235 234 238 239 239 238 238 238 239 240 244 247 253 259 262 268 271
232 233 243 249 240 234 231 234 239 238 236 237 237 237 243 245 254 260 257 262 263 266
236 242 240 241 236 236 233 230 234 238 239 236 238 243 249 251 252 260 260 262 264 270
244 239 235 234 233 233 234 232 232 237 242 244 240 244 250 251 251 249 252 260 266 270
254 246 239 237 231 229 223 227 228 233 237 243 238 240 245 244 246 246 255 262 266 263
260 247 244 238 230 226 226 226 228 225 226 232 238 242 243 245 247 250 255 254 250 251
Wind_Speed_850mb
33 24 20 20 20 17 18 18 23 23 17 18 19 19 20 15 10 12 8 9 10 8
32 31 26 26 24 19 23 21 19 22 21 18 24 23 19 14 14 15 10 12 9 8
33 30 30 27 30 25 22 24 24 22 22 23 23 22 24 18 18 17 14 11 15 12
32 32 31 31 31 32 32 29 29 30 28 24 25 27 22 20 20 19 18 16 17 16
39 36 35 35 36 34 34 38 36 31 29 28 26 29 30 25 19 21 20 18 19 16
40 41 43 42 39 36 37 37 36 37 37 31 30 26 29 33 28 22 21 21 19 20
44 45 44 43 45 41 41 45 44 40 41 36 36 31 29 29 29 23 23 24 23 25
45 46 43 45 48 45 44 45 49 47 39 37 36 34 29 26 26 26 25 25 27 28
44 43 50 46 46 50 48 48 46 52 46 41 40 39 41 33 29 28 28 30 30 30
49 56 61 53 47 49 50 50 49 46 48 48 45 47 48 40 39 38 32 36 30 29
46 53 57 59 55 47 46 50 55 51 47 44 45 53 54 51 48 48 42 36 34 34
40 51 57 62 57 54 49 50 51 54 56 52 46 53 52 47 44 38 37 38 41 38
36 43 54 59 61 52 46 48 45 47 53 53 45 53 47 43 43 41 46 47 43 40
33 41 50 50 50 56 52 48 53 48 51 50 51 45 44 44 44 45 44 41 40 40
Wind_Direction_850mb
212 213 206 211 207 203 209 219 218 225 235 217 209 215 225 232 229 255 271 263 260 278
222 214 215 212 217 222 215 215 220 218 221 220 227 233 238 228 243 239 268 267 273 280
222 229 225 221 220 220 218 220 217 221 228 228 232 236 240 235 252 248 255 273 271 279
217 221 227 226 230 234 240 234 232 239 231 233 232 232 237 229 227 251 256 263 277 280
228 219 222 228 231 235 234 242 240 238 236 240 230 237 237 240 240 251 250 253 265 280
226 226 226 226 229 230 234 235 239 239 243 240 233 242 245 245 240 239 247 258 267 277
229 231 232 231 231 233 234 239 237 241 243 241 233 243 251 246 232 241 256 263 271 276
237 234 233 233 235 238 236 240 237 239 241 240 237 242 249 236 234 249 257 259 267 280
236 234 235 240 235 235 234 238 239 239 238 238 238 239 240 244 247 253 259 262 268 271
232 233 243 249 240 234 231 234 239 238 236 237 237 237 243 245 254 260 257 262 263 266
236 242 240 241 236 236 233 230 234 238 239 236 238 243 249 251 252 260 260 262 264 270
244 239 235 234 233 233 234 232 232 237 242 244 240 244 250 251 251 249 252 260 266 270
254 246 239 237 231 229 223 227 228 233 237 243 238 240 245 244 246 246 255 262 266 263
260 247 244 238 230 226 226 226 228 225 226 232 238 242 243 245 247 250 255 254 250 251